STARLINK-2558 (48282 NORAD) Tracking and Keplerian Element Data

This shows tracking and keplerian element data for the satellite.

Feedback or suggestion? Click here.




ElementValue
Catalog48282
NameSTARLINK-2558
Epoch Orbit1576
Epoch Day215.25002315
Epoch Year2021
RAAN60.8544
Inclination53.0608
Eccentricity0.0001949
Argument of Perigee79.2521
Mean Anonmoly33.2299
Mean Motion15.06416758
Decay Rate-0.00032489
L11 48282U 21036G 21215.25002315 -.00032489 00000-0 -21711-2 0 9997
L22 48282 53.0608 60.8544 0001949 79.2521 33.2299 15.06416758 15764

Live tracking and technical data element details for STARLINK-2558 (NORAD 48282). STARLINK-2558 can be tracked NOW for your location showing map with azimuth and elevation plus other details from your city location.

Track the satellite on the map from your city or location and see movement details for azimuth, elevation, latitude, longitude, range, height, and movement on the map or in text.







IsCatalogInMostPopularTable: catalog: 48282, numindb: 43
Update: records affected: 1



GetName: 48282 STARLINK-2558

Hit Count: updated at: Tue, 03 Aug 2021 20:09:17 GMT